Year,Month,Day,Hour,Minute,Value (Times are PST for windspeed in km/hr)
2007,03,12,00,00,22.20
2007,03,12,00,01,16.70
2007,03,12,00,02,14.30
2007,03,12,00,03,13.80
2007,03,12,00,04,12.10
2007,03,12,00,05,10.50
2007,03,12,00,06,15.00
2007,03,12,00,07,18.90
2007,03,12,00,08,19.00
2007,03,12,00,09,15.00
2007,03,12,00,10,18.50
2007,03,12,00,11,17.10
2007,03,12,00,12,23.00
2007,03,12,00,13,10.80
2007,03,12,00,14,13.60
2007,03,12,00,15,10.30
2007,03,12,00,16,13.30
2007,03,12,00,17,11.60
2007,03,12,00,18,18.60
2007,03,12,00,19,20.00
2007,03,12,00,20,17.10
2007,03,12,00,21,18.90
2007,03,12,00,22,16.70
2007,03,12,00,23,19.30
2007,03,12,00,24,13.40
2007,03,12,00,25,9.90
2007,03,12,00,26,17.60
2007,03,12,00,27,17.70
2007,03,12,00,28,11.20
2007,03,12,00,29,8.70
2007,03,12,00,30,17.60
2007,03,12,00,31,16.60
2007,03,12,00,32,19.20
2007,03,12,00,33,10.80
2007,03,12,00,34,10.30
2007,03,12,00,35,15.10
2007,03,12,00,36,21.60
2007,03,12,00,37,19.50
2007,03,12,00,38,12.60
2007,03,12,00,39,10.00
2007,03,12,00,40,14.80
2007,03,12,00,41,21.10
2007,03,12,00,42,20.80
2007,03,12,00,43,13.70
2007,03,12,00,44,15.00
2007,03,12,00,45,17.50
2007,03,12,00,46,16.90
2007,03,12,00,47,18.30
2007,03,12,00,48,17.10
2007,03,12,00,49,10.10
2007,03,12,00,50,14.70
2007,03,12,00,51,25.80
2007,03,12,00,52,23.70
2007,03,12,00,53,17.80
2007,03,12,00,54,16.80
2007,03,12,00,55,23.10
2007,03,12,00,56,23.10
2007,03,12,00,57,14.60
2007,03,12,00,58,23.10
2007,03,12,00,59,25.10
2007,03,12,01,00,23.80
2007,03,12,01,01,21.10
2007,03,12,01,02,23.30
2007,03,12,01,03,17.00
2007,03,12,01,04,19.20
2007,03,12,01,05,24.10
2007,03,12,01,06,16.90
2007,03,12,01,07,20.40
2007,03,12,01,08,22.50
2007,03,12,01,09,20.50
2007,03,12,01,10,13.50
2007,03,12,01,11,17.80
2007,03,12,01,12,17.10
2007,03,12,01,13,15.00
2007,03,12,01,14,22.90
2007,03,12,01,15,15.30
2007,03,12,01,16,17.20
2007,03,12,01,17,22.10
2007,03,12,01,18,18.40
2007,03,12,01,19,15.80
2007,03,12,01,20,17.40
2007,03,12,01,21,23.40
2007,03,12,01,22,21.20
2007,03,12,01,23,17.70
2007,03,12,01,24,20.80
2007,03,12,01,25,20.30
2007,03,12,01,26,13.50
2007,03,12,01,27,20.20
2007,03,12,01,28,17.70
2007,03,12,01,29,13.80
2007,03,12,01,30,18.40
2007,03,12,01,31,24.20
2007,03,12,01,32,18.90
2007,03,12,01,33,16.70
2007,03,12,01,34,15.70
2007,03,12,01,35,19.10
2007,03,12,01,36,16.00
2007,03,12,01,37,18.00
2007,03,12,01,38,13.70
2007,03,12,01,39,16.10
2007,03,12,01,40,22.80
2007,03,12,01,41,20.60
2007,03,12,01,42,23.60
2007,03,12,01,43,22.40
2007,03,12,01,44,18.70
2007,03,12,01,45,16.30
2007,03,12,01,46,23.50
2007,03,12,01,47,15.90
2007,03,12,01,48,16.20
2007,03,12,01,49,18.90
2007,03,12,01,50,18.30
2007,03,12,01,51,16.50
2007,03,12,01,52,15.00
2007,03,12,01,53,19.30
2007,03,12,01,54,18.20
2007,03,12,01,55,17.80
2007,03,12,01,56,22.50
2007,03,12,01,57,22.50
2007,03,12,01,58,27.20
2007,03,12,01,59,20.40
2007,03,12,02,00,20.90
2007,03,12,02,01,17.30
2007,03,12,02,02,23.00
2007,03,12,02,03,17.80
2007,03,12,02,04,19.40
2007,03,12,02,05,20.30
2007,03,12,02,06,19.60
2007,03,12,02,07,22.50
2007,03,12,02,08,19.20
2007,03,12,02,09,25.80
2007,03,12,02,10,25.20
2007,03,12,02,11,19.90
2007,03,12,02,12,16.20
2007,03,12,02,13,20.20
2007,03,12,02,14,21.10
2007,03,12,02,15,22.20
2007,03,12,02,16,24.00
2007,03,12,02,17,29.10
2007,03,12,02,18,22.20
2007,03,12,02,19,19.20
2007,03,12,02,20,22.70
2007,03,12,02,21,19.60
2007,03,12,02,22,25.20
2007,03,12,02,23,22.40
2007,03,12,02,24,21.60
2007,03,12,02,25,18.80
2007,03,12,02,26,20.50
2007,03,12,02,27,16.90
2007,03,12,02,28,20.80
2007,03,12,02,29,24.50
2007,03,12,02,30,18.50
2007,03,12,02,31,19.20
2007,03,12,02,32,15.00
2007,03,12,02,33,18.80
2007,03,12,02,34,15.00
2007,03,12,02,35,18.80
2007,03,12,02,36,18.70
2007,03,12,02,37,20.00
2007,03,12,02,38,24.20
2007,03,12,02,39,11.20
2007,03,12,02,40,18.00
2007,03,12,02,41,18.30
2007,03,12,02,42,21.00
2007,03,12,02,43,15.20
2007,03,12,02,44,16.10
2007,03,12,02,45,21.70
2007,03,12,02,46,23.50
2007,03,12,02,47,22.00
2007,03,12,02,48,21.30
2007,03,12,02,49,10.50
2007,03,12,02,50,18.00
2007,03,12,02,51,22.70
2007,03,12,02,52,24.00
2007,03,12,02,53,23.60
2007,03,12,02,54,37.30
2007,03,12,02,55,27.20
2007,03,12,02,56,26.10
2007,03,12,02,57,28.00
2007,03,12,02,58,28.60
2007,03,12,02,59,28.40
2007,03,12,03,00,26.40
2007,03,12,03,01,22.00
2007,03,12,03,02,29.20
2007,03,12,03,03,27.60
2007,03,12,03,04,32.40
2007,03,12,03,05,30.30
2007,03,12,03,06,31.10
2007,03,12,03,07,28.70
2007,03,12,03,08,30.80
2007,03,12,03,09,23.10
2007,03,12,03,10,31.90
2007,03,12,03,11,33.30
2007,03,12,03,12,25.20
2007,03,12,03,13,24.90
2007,03,12,03,14,24.80
2007,03,12,03,15,26.60
2007,03,12,03,16,24.50
2007,03,12,03,17,22.80
2007,03,12,03,18,23.40
2007,03,12,03,19,27.70
2007,03,12,03,20,31.90
2007,03,12,03,21,35.20
2007,03,12,03,22,25.70
2007,03,12,03,23,19.80
2007,03,12,03,24,19.50
2007,03,12,03,25,24.10
2007,03,12,03,26,31.80
2007,03,12,03,27,28.70
2007,03,12,03,28,30.20
2007,03,12,03,29,32.40
2007,03,12,03,30,27.10
2007,03,12,03,31,27.70
2007,03,12,03,32,26.30
2007,03,12,03,33,19.20
2007,03,12,03,34,32.50
2007,03,12,03,35,29.90
2007,03,12,03,36,23.00
2007,03,12,03,37,26.50
2007,03,12,03,38,23.50
2007,03,12,03,39,29.30
2007,03,12,03,40,37.00
2007,03,12,03,41,29.10
2007,03,12,03,42,30.00
2007,03,12,03,43,29.40
2007,03,12,03,44,37.00
2007,03,12,03,45,23.00
2007,03,12,03,46,27.40
2007,03,12,03,47,27.00
2007,03,12,03,48,21.40
2007,03,12,03,49,29.40
2007,03,12,03,50,24.50
2007,03,12,03,51,19.90
2007,03,12,03,52,23.40
2007,03,12,03,53,20.10
2007,03,12,03,54,20.90
2007,03,12,03,55,31.60
2007,03,12,03,56,26.80
2007,03,12,03,57,27.20
2007,03,12,03,58,23.20
2007,03,12,03,59,24.80
2007,03,12,04,00,22.00
2007,03,12,04,01,23.20
2007,03,12,04,02,26.00
2007,03,12,04,03,30.90
2007,03,12,04,04,24.20
2007,03,12,04,05,25.10
2007,03,12,04,06,22.80
2007,03,12,04,07,25.60
2007,03,12,04,08,25.80
2007,03,12,04,09,34.80
2007,03,12,04,10,27.00
2007,03,12,04,11,28.60
2007,03,12,04,12,26.70
2007,03,12,04,13,22.30
2007,03,12,04,14,32.10
2007,03,12,04,15,33.10
2007,03,12,04,16,28.90
2007,03,12,04,17,33.90
2007,03,12,04,18,24.10
2007,03,12,04,19,30.20
2007,03,12,04,20,19.80
2007,03,12,04,21,23.90
2007,03,12,04,22,24.20
2007,03,12,04,23,19.20
2007,03,12,04,24,19.10
2007,03,12,04,25,17.70
2007,03,12,04,26,22.70
2007,03,12,04,27,31.00
2007,03,12,04,28,33.40
2007,03,12,04,29,27.00
2007,03,12,04,30,31.90
2007,03,12,04,31,24.10
2007,03,12,04,32,22.00
2007,03,12,04,33,24.30
2007,03,12,04,34,15.40
2007,03,12,04,35,24.70
2007,03,12,04,36,23.50
2007,03,12,04,37,20.40
2007,03,12,04,38,27.90
2007,03,12,04,39,25.60
2007,03,12,04,40,26.40
2007,03,12,04,41,34.60
2007,03,12,04,42,41.00
2007,03,12,04,43,23.00
2007,03,12,04,44,24.10
2007,03,12,04,45,26.80
2007,03,12,04,46,20.20
2007,03,12,04,47,33.50
2007,03,12,04,48,28.70
2007,03,12,04,49,25.30
2007,03,12,04,50,26.10
2007,03,12,04,51,24.80
2007,03,12,04,52,25.60
2007,03,12,04,53,29.60
2007,03,12,04,54,26.70
2007,03,12,04,55,24.90
2007,03,12,04,56,18.80
2007,03,12,04,57,24.40
2007,03,12,04,58,25.10
2007,03,12,04,59,24.90
2007,03,12,05,00,28.30
2007,03,12,05,01,26.40
2007,03,12,05,02,32.30
2007,03,12,05,03,27.90
2007,03,12,05,04,26.20
2007,03,12,05,05,24.50
2007,03,12,05,06,32.40
2007,03,12,05,07,29.00
2007,03,12,05,08,23.70
2007,03,12,05,09,27.90
2007,03,12,05,10,25.60
2007,03,12,05,11,22.40
2007,03,12,05,12,25.50
2007,03,12,05,13,26.20
2007,03,12,05,14,19.60
2007,03,12,05,15,24.20
2007,03,12,05,16,24.80
2007,03,12,05,17,22.50
2007,03,12,05,18,32.90
2007,03,12,05,19,24.50
2007,03,12,05,20,25.80
2007,03,12,05,21,26.10
2007,03,12,05,22,22.40
2007,03,12,05,23,26.60
2007,03,12,05,24,27.30
2007,03,12,05,25,32.00
2007,03,12,05,26,18.30
2007,03,12,05,27,31.40
2007,03,12,05,28,34.70
2007,03,12,05,29,31.60
2007,03,12,05,30,31.20
2007,03,12,05,31,28.50
2007,03,12,05,32,27.90
2007,03,12,05,33,38.20
2007,03,12,05,34,28.50
2007,03,12,05,35,31.80
2007,03,12,05,36,31.60
2007,03,12,05,37,17.70
2007,03,12,05,38,25.50
2007,03,12,05,39,32.70
2007,03,12,05,40,29.30
2007,03,12,05,41,27.90
2007,03,12,05,42,24.40
2007,03,12,05,43,21.80
2007,03,12,05,44,22.40
2007,03,12,05,45,11.30
2007,03,12,05,46,9.60
2007,03,12,05,47,18.70
2007,03,12,05,48,18.30
2007,03,12,05,49,21.90
2007,03,12,05,50,16.60
2007,03,12,05,51,14.30
2007,03,12,05,52,18.60
2007,03,12,05,53,13.80
2007,03,12,05,54,23.80
2007,03,12,05,55,20.10
2007,03,12,05,56,20.50
2007,03,12,05,57,20.60
2007,03,12,05,58,23.20
2007,03,12,05,59,14.10
2007,03,12,06,00,18.80
2007,03,12,06,01,30.10
2007,03,12,06,02,28.00
2007,03,12,06,03,17.20
2007,03,12,06,04,23.10
2007,03,12,06,05,16.00
2007,03,12,06,06,21.50
2007,03,12,06,07,18.00
2007,03,12,06,08,26.20
2007,03,12,06,09,22.80
2007,03,12,06,10,19.70
2007,03,12,06,11,18.60
2007,03,12,06,12,13.40
2007,03,12,06,13,9.20
2007,03,12,06,14,18.30
2007,03,12,06,15,23.00
2007,03,12,06,16,12.80
2007,03,12,06,17,10.60
2007,03,12,06,18,13.10
2007,03,12,06,19,17.90
2007,03,12,06,20,19.90
2007,03,12,06,21,12.60
2007,03,12,06,22,14.20
2007,03,12,06,23,13.70
2007,03,12,06,24,17.00
2007,03,12,06,25,22.40
2007,03,12,06,26,13.00
2007,03,12,06,27,14.20
2007,03,12,06,28,8.70
2007,03,12,06,29,7.20
2007,03,12,06,30,9.70
2007,03,12,06,31,13.40
2007,03,12,06,32,14.10
2007,03,12,06,33,7.60
2007,03,12,06,34,4.80
2007,03,12,06,35,9.70
2007,03,12,06,36,7.80
2007,03,12,06,37,1.50
2007,03,12,06,38,6.00
2007,03,12,06,39,8.70
2007,03,12,06,40,11.00
2007,03,12,06,41,5.30
2007,03,12,06,42,3.40
2007,03,12,06,43,5.40
2007,03,12,06,44,4.80
2007,03,12,06,45,4.40
2007,03,12,06,46,5.30
2007,03,12,06,47,1.50
2007,03,12,06,48,3.00
2007,03,12,06,49,2.30
2007,03,12,06,50,1.90
2007,03,12,06,51,3.90
2007,03,12,06,52,3.30
2007,03,12,06,53,1.60
2007,03,12,06,54,1.40
2007,03,12,06,55,0.30
2007,03,12,06,56,1.60
2007,03,12,06,57,2.80
2007,03,12,06,58,2.80
2007,03,12,06,59,2.50
2007,03,12,07,00,4.60
2007,03,12,07,01,2.40
2007,03,12,07,02,0.10
2007,03,12,07,03,0.30
2007,03,12,07,04,2.30
2007,03,12,07,05,0.30
2007,03,12,07,06,0.20
2007,03,12,07,07,0.50
2007,03,12,07,08,4.80
2007,03,12,07,09,6.10
2007,03,12,07,10,6.00
2007,03,12,07,11,0.30
2007,03,12,07,12,0.10
2007,03,12,07,13,0.00
2007,03,12,07,14,0.80
2007,03,12,07,15,3.20
2007,03,12,07,16,0.10
2007,03,12,07,17,4.20
2007,03,12,07,18,4.70
2007,03,12,07,19,3.70
2007,03,12,07,20,3.20
2007,03,12,07,21,0.90
2007,03,12,07,22,0.10
2007,03,12,07,23,2.20
2007,03,12,07,24,0.60
2007,03,12,07,25,0.20
2007,03,12,07,26,0.30
2007,03,12,07,27,1.50
2007,03,12,07,28,1.40
2007,03,12,07,29,5.20
2007,03,12,07,30,3.50
2007,03,12,07,31,3.30
2007,03,12,07,32,1.80
2007,03,12,07,33,1.00
2007,03,12,07,34,0.00
2007,03,12,07,35,0.50
2007,03,12,07,36,3.60
2007,03,12,07,37,6.20
2007,03,12,07,38,2.90
2007,03,12,07,39,0.80
2007,03,12,07,40,1.40
2007,03,12,07,41,1.70
2007,03,12,07,42,0.60
2007,03,12,07,43,0.80
2007,03,12,07,44,1.00
2007,03,12,07,45,2.00
2007,03,12,07,46,2.70
2007,03,12,07,47,4.70
2007,03,12,07,48,2.20
2007,03,12,07,49,0.60
2007,03,12,07,50,0.60
2007,03,12,07,51,1.60
2007,03,12,07,52,1.60
2007,03,12,07,53,0.20
2007,03,12,07,54,2.50
2007,03,12,07,55,1.50
2007,03,12,07,56,1.80
2007,03,12,07,57,2.40
2007,03,12,07,58,1.30
2007,03,12,07,59,1.70
2007,03,12,08,00,1.60
2007,03,12,08,01,5.20
2007,03,12,08,02,6.00
2007,03,12,08,03,4.10
2007,03,12,08,04,5.20
2007,03,12,08,05,6.80
2007,03,12,08,06,2.60
2007,03,12,08,07,8.20
2007,03,12,08,08,10.80
2007,03,12,08,09,5.40
2007,03,12,08,10,1.70
2007,03,12,08,11,7.90
2007,03,12,08,12,8.80
2007,03,12,08,13,4.70
2007,03,12,08,14,3.90
2007,03,12,08,15,6.40
2007,03,12,08,16,4.10
2007,03,12,08,17,4.30
2007,03,12,08,18,8.00
2007,03,12,08,19,6.00
2007,03,12,08,20,3.80
2007,03,12,08,21,3.60
2007,03,12,08,22,3.10
2007,03,12,08,23,6.30
2007,03,12,08,24,4.60
2007,03,12,08,25,5.90
2007,03,12,08,26,3.60
2007,03,12,08,27,5.70
2007,03,12,08,28,5.50
2007,03,12,08,29,5.60
2007,03,12,08,30,4.80
2007,03,12,08,31,8.60
2007,03,12,08,32,8.50
2007,03,12,08,33,6.90
2007,03,12,08,34,3.40
2007,03,12,08,35,3.50
2007,03,12,08,36,4.80
2007,03,12,08,37,3.40
2007,03,12,08,38,3.50
2007,03,12,08,39,1.90
2007,03,12,08,40,0.30
2007,03,12,08,41,3.20
2007,03,12,08,42,5.20
2007,03,12,08,43,2.10
2007,03,12,08,44,0.40
2007,03,12,08,45,2.70
2007,03,12,08,46,2.80
2007,03,12,08,47,1.10
2007,03,12,08,48,0.40
2007,03,12,08,49,0.10
2007,03,12,08,50,0.00
2007,03,12,08,51,0.90
2007,03,12,08,52,1.10
2007,03,12,08,53,1.30
2007,03,12,08,54,2.40
2007,03,12,08,55,1.30
2007,03,12,08,56,2.50
2007,03,12,08,57,1.60
2007,03,12,08,58,2.00
2007,03,12,08,59,1.60
2007,03,12,09,00,3.10
2007,03,12,09,01,1.90
2007,03,12,09,02,0.00
2007,03,12,09,03,0.70
2007,03,12,09,04,3.00
2007,03,12,09,05,3.90
2007,03,12,09,06,0.60
2007,03,12,09,07,0.00
2007,03,12,09,08,3.00
2007,03,12,09,09,4.90
2007,03,12,09,10,7.70
2007,03,12,09,11,6.10
2007,03,12,09,12,5.50
2007,03,12,09,13,2.50
2007,03,12,09,14,2.40
2007,03,12,09,15,2.00
2007,03,12,09,16,0.30
2007,03,12,09,17,3.50
2007,03,12,09,18,5.60
2007,03,12,09,19,3.70
2007,03,12,09,20,11.10
2007,03,12,09,21,6.10
2007,03,12,09,22,1.60
2007,03,12,09,23,1.10
2007,03,12,09,24,0.50
2007,03,12,09,25,0.20
2007,03,12,09,26,2.60
2007,03,12,09,27,5.40
2007,03,12,09,28,6.40
2007,03,12,09,29,5.00
2007,03,12,09,30,4.40
2007,03,12,09,31,1.90
2007,03,12,09,32,4.60
2007,03,12,09,33,5.50
2007,03,12,09,34,5.40
2007,03,12,09,35,1.30
2007,03,12,09,36,10.40
2007,03,12,09,37,9.00
2007,03,12,09,38,5.60
2007,03,12,09,39,10.70
2007,03,12,09,40,9.10
2007,03,12,09,41,6.20
2007,03,12,09,42,3.30
2007,03,12,09,43,3.20
2007,03,12,09,44,0.70
2007,03,12,09,45,0.20
2007,03,12,09,46,5.90
2007,03,12,09,47,6.00
2007,03,12,09,48,13.00
2007,03,12,09,49,10.10
2007,03,12,09,50,8.80
2007,03,12,09,51,13.00
2007,03,12,09,52,13.50
2007,03,12,09,53,10.80
2007,03,12,09,54,14.00
2007,03,12,09,55,11.90
2007,03,12,09,56,4.50
2007,03,12,09,57,4.30
2007,03,12,09,58,5.30
2007,03,12,09,59,11.40
2007,03,12,10,00,4.80
2007,03,12,10,01,3.90
2007,03,12,10,02,3.00
2007,03,12,10,03,3.30
2007,03,12,10,04,3.90
2007,03,12,10,05,4.00
2007,03,12,10,06,4.30
2007,03,12,10,07,7.50
2007,03,12,10,08,12.00
2007,03,12,10,09,7.00
2007,03,12,10,10,4.20
2007,03,12,10,11,4.30
2007,03,12,10,12,6.20
2007,03,12,10,13,6.30
2007,03,12,10,14,3.90
2007,03,12,10,15,5.20
2007,03,12,10,16,5.20
2007,03,12,10,17,4.40
2007,03,12,10,18,3.80
2007,03,12,10,19,6.20
2007,03,12,10,20,6.20
2007,03,12,10,21,8.40
2007,03,12,10,22,4.30
2007,03,12,10,23,10.10
2007,03,12,10,24,10.90
2007,03,12,10,25,6.90
2007,03,12,10,26,9.30
2007,03,12,10,27,11.70
2007,03,12,10,28,4.70
2007,03,12,10,29,7.00
2007,03,12,10,30,6.40
2007,03,12,10,31,4.80
2007,03,12,10,32,5.30
2007,03,12,10,33,18.10
2007,03,12,10,34,16.00
2007,03,12,10,35,14.90
2007,03,12,10,36,16.60
2007,03,12,10,37,11.30
2007,03,12,10,38,13.30
2007,03,12,10,39,11.60
2007,03,12,10,40,12.80
2007,03,12,10,41,10.00
2007,03,12,10,42,8.60
2007,03,12,10,43,7.80
2007,03,12,10,44,12.20
2007,03,12,10,45,10.40
2007,03,12,10,46,8.70
2007,03,12,10,47,8.80
2007,03,12,10,48,5.80
2007,03,12,10,49,6.00
2007,03,12,10,50,6.50
2007,03,12,10,51,3.30
2007,03,12,10,52,6.70
2007,03,12,10,53,6.30
2007,03,12,10,54,6.80
2007,03,12,10,55,7.10
2007,03,12,10,56,3.80
2007,03,12,10,57,10.20
2007,03,12,10,58,9.10
2007,03,12,10,59,5.30
2007,03,12,11,00,5.30
2007,03,12,11,01,5.80
2007,03,12,11,02,7.60
2007,03,12,11,03,4.00
2007,03,12,11,04,4.90
2007,03,12,11,05,8.10
2007,03,12,11,06,9.40
2007,03,12,11,07,9.20
2007,03,12,11,08,5.50
2007,03,12,11,09,3.70
2007,03,12,11,10,9.40
2007,03,12,11,11,5.80
2007,03,12,11,12,11.80
2007,03,12,11,13,7.00
2007,03,12,11,14,4.50
2007,03,12,11,15,6.40
2007,03,12,11,16,11.00
2007,03,12,11,17,9.30
2007,03,12,11,18,14.70
2007,03,12,11,19,6.00
2007,03,12,11,20,5.50
2007,03,12,11,21,6.40
2007,03,12,11,22,7.70
2007,03,12,11,23,9.20
2007,03,12,11,24,7.10
2007,03,12,11,25,5.60
2007,03,12,11,26,6.40
2007,03,12,11,27,7.00
2007,03,12,11,28,14.30
2007,03,12,11,29,13.10
2007,03,12,11,30,10.30
2007,03,12,11,31,13.10
2007,03,12,11,32,16.30
2007,03,12,11,33,11.70
2007,03,12,11,34,15.70
2007,03,12,11,35,11.00
2007,03,12,11,36,11.40
2007,03,12,11,37,8.10
2007,03,12,11,38,8.00
2007,03,12,11,39,12.50
2007,03,12,11,40,9.20
2007,03,12,11,41,14.50
2007,03,12,11,42,17.80
2007,03,12,11,43,13.20
2007,03,12,11,44,10.10
2007,03,12,11,45,14.20
2007,03,12,11,46,16.70
2007,03,12,11,47,16.70
2007,03,12,11,48,14.00
2007,03,12,11,49,14.30
2007,03,12,11,50,14.50
2007,03,12,11,51,15.20
2007,03,12,11,52,10.10
2007,03,12,11,53,17.80
2007,03,12,11,54,19.50
2007,03,12,11,55,16.60
2007,03,12,11,56,9.30
2007,03,12,11,57,8.60
2007,03,12,11,58,11.90
2007,03,12,11,59,13.20
2007,03,12,12,00,10.90
2007,03,12,12,01,10.70
2007,03,12,12,02,7.60
2007,03,12,12,03,11.50
2007,03,12,12,04,9.20
2007,03,12,12,05,6.50
2007,03,12,12,06,12.30
2007,03,12,12,07,14.10
2007,03,12,12,08,4.10
2007,03,12,12,09,4.00
2007,03,12,12,10,5.20
2007,03,12,12,11,2.80
2007,03,12,12,12,5.10
2007,03,12,12,13,4.20
2007,03,12,12,14,0.60
2007,03,12,12,15,0.00
2007,03,12,12,16,1.50
2007,03,12,12,17,4.00
2007,03,12,12,18,2.60
2007,03,12,12,19,0.80
2007,03,12,12,20,5.60
2007,03,12,12,21,2.00
2007,03,12,12,22,5.80
2007,03,12,12,23,7.20
2007,03,12,12,24,8.70
2007,03,12,12,25,17.50
2007,03,12,12,26,11.30
2007,03,12,12,27,12.50
2007,03,12,12,28,9.10
2007,03,12,12,29,8.50
2007,03,12,12,30,9.90
2007,03,12,12,31,11.20
2007,03,12,12,32,17.50
2007,03,12,12,33,21.60
2007,03,12,12,34,21.50
2007,03,12,12,35,17.20
2007,03,12,12,36,15.80
2007,03,12,12,37,19.30
2007,03,12,12,38,20.30
2007,03,12,12,39,16.80
2007,03,12,12,40,15.80
2007,03,12,12,41,18.50
2007,03,12,12,42,15.90
2007,03,12,12,43,17.60
2007,03,12,12,44,21.90
2007,03,12,12,45,18.60
2007,03,12,12,46,19.30
2007,03,12,12,47,16.10
2007,03,12,12,48,19.80
2007,03,12,12,49,24.10
2007,03,12,12,50,19.60
2007,03,12,12,51,17.70
2007,03,12,12,52,18.10
2007,03,12,12,53,10.90
2007,03,12,12,54,15.90
2007,03,12,12,55,19.80
2007,03,12,12,56,23.80
2007,03,12,12,57,21.80
2007,03,12,12,58,20.10
2007,03,12,12,59,17.50
2007,03,12,13,00,14.10
2007,03,12,13,01,17.70
2007,03,12,13,02,18.70
2007,03,12,13,03,21.30
2007,03,12,13,04,11.50
2007,03,12,13,05,14.30
2007,03,12,13,06,9.10
2007,03,12,13,07,11.20
2007,03,12,13,08,12.90
2007,03,12,13,09,18.60
2007,03,12,13,10,11.60
2007,03,12,13,11,14.20
2007,03,12,13,12,10.10
2007,03,12,13,13,7.80
2007,03,12,13,14,13.20
2007,03,12,13,15,11.30
2007,03,12,13,16,8.80
2007,03,12,13,17,11.30
2007,03,12,13,18,8.60
2007,03,12,13,19,6.00
2007,03,12,13,20,10.90
2007,03,12,13,21,7.30
2007,03,12,13,22,11.10
2007,03,12,13,23,19.50
2007,03,12,13,24,23.50
2007,03,12,13,25,16.90
2007,03,12,13,26,16.40
2007,03,12,13,27,15.10
2007,03,12,13,28,14.00
2007,03,12,13,29,10.70
2007,03,12,13,30,10.40
2007,03,12,13,31,16.70
2007,03,12,13,32,14.60
2007,03,12,13,33,11.90
2007,03,12,13,34,14.50
2007,03,12,13,35,12.60
2007,03,12,13,36,13.80
2007,03,12,13,37,13.20
2007,03,12,13,38,16.50
2007,03,12,13,39,19.30
2007,03,12,13,40,14.60
2007,03,12,13,41,13.90
2007,03,12,13,42,13.20
2007,03,12,13,43,18.00
2007,03,12,13,44,14.00
2007,03,12,13,45,12.20
2007,03,12,13,46,12.60
2007,03,12,13,47,13.00
2007,03,12,13,48,10.80
2007,03,12,13,49,7.00
2007,03,12,13,50,11.60
2007,03,12,13,51,9.80
2007,03,12,13,52,9.70
2007,03,12,13,53,10.10
2007,03,12,13,54,10.20
2007,03,12,13,55,13.60
2007,03,12,13,56,9.10
2007,03,12,13,57,16.20
2007,03,12,13,58,9.50
2007,03,12,13,59,6.10
2007,03,12,14,00,6.60
2007,03,12,14,01,8.60
2007,03,12,14,02,16.40
2007,03,12,14,03,12.40
2007,03,12,14,04,14.90
2007,03,12,14,05,13.30
2007,03,12,14,06,20.00
2007,03,12,14,07,17.40
2007,03,12,14,08,14.60
2007,03,12,14,09,17.40
2007,03,12,14,10,15.10
2007,03,12,14,11,15.60
2007,03,12,14,12,16.90
2007,03,12,14,13,11.10
2007,03,12,14,14,14.50
2007,03,12,14,15,12.60
2007,03,12,14,16,16.50
2007,03,12,14,17,16.30
2007,03,12,14,18,14.20
2007,03,12,14,19,16.00
2007,03,12,14,20,8.40
2007,03,12,14,21,14.60
2007,03,12,14,22,13.80
2007,03,12,14,23,14.30
2007,03,12,14,24,13.80
2007,03,12,14,25,14.60
2007,03,12,14,26,19.90
2007,03,12,14,27,22.00
2007,03,12,14,28,10.20
2007,03,12,14,29,9.10
2007,03,12,14,30,10.90
2007,03,12,14,31,14.90
2007,03,12,14,32,16.70
2007,03,12,14,33,16.90
2007,03,12,14,34,13.00
2007,03,12,14,35,13.00
2007,03,12,14,36,13.90
2007,03,12,14,37,16.70
2007,03,12,14,38,17.70
2007,03,12,14,39,16.30
2007,03,12,14,40,9.70
2007,03,12,14,41,8.00
2007,03,12,14,42,17.30
2007,03,12,14,43,10.70
2007,03,12,14,44,12.80
2007,03,12,14,45,15.30
2007,03,12,14,46,18.00
2007,03,12,14,47,12.90
2007,03,12,14,48,6.30
2007,03,12,14,49,11.10
2007,03,12,14,50,14.20
2007,03,12,14,51,6.70
2007,03,12,14,52,8.50
2007,03,12,14,53,14.20
2007,03,12,14,54,25.60
2007,03,12,14,55,16.50
2007,03,12,14,56,12.60
2007,03,12,14,57,11.30
2007,03,12,14,58,16.80
2007,03,12,14,59,16.00
2007,03,12,15,00,12.80
2007,03,12,15,01,14.20
2007,03,12,15,02,13.00
2007,03,12,15,03,16.10
2007,03,12,15,04,16.10
2007,03,12,15,05,17.20
2007,03,12,15,06,10.20
2007,03,12,15,07,6.00
2007,03,12,15,08,13.30
2007,03,12,15,09,17.20
2007,03,12,15,10,11.70
2007,03,12,15,11,18.30
2007,03,12,15,12,16.20
2007,03,12,15,13,10.80
2007,03,12,15,14,11.00
2007,03,12,15,15,10.30
2007,03,12,15,16,7.40
2007,03,12,15,17,5.40
2007,03,12,15,18,7.70
2007,03,12,15,19,5.30
2007,03,12,15,20,10.30
2007,03,12,15,21,12.20
2007,03,12,15,22,7.70
2007,03,12,15,23,9.50
2007,03,12,15,24,8.40
2007,03,12,15,25,18.80
2007,03,12,15,26,11.50
2007,03,12,15,27,7.90
2007,03,12,15,28,15.30
2007,03,12,15,29,14.40
2007,03,12,15,30,6.70
2007,03,12,15,31,5.70
2007,03,12,15,32,6.40
2007,03,12,15,33,6.20
2007,03,12,15,34,2.70
2007,03,12,15,35,3.20
2007,03,12,15,36,8.10
2007,03,12,15,37,9.50
2007,03,12,15,38,12.60
2007,03,12,15,39,13.40
2007,03,12,15,40,11.90
2007,03,12,15,41,8.80
2007,03,12,15,42,6.90
2007,03,12,15,43,3.30
2007,03,12,15,44,5.30
2007,03,12,15,45,6.80
2007,03,12,15,46,7.20
2007,03,12,15,47,8.60
2007,03,12,15,48,7.60
2007,03,12,15,49,7.30
2007,03,12,15,50,11.30
2007,03,12,15,51,7.50
2007,03,12,15,52,12.40
2007,03,12,15,53,10.30
2007,03,12,15,54,14.50
2007,03,12,15,55,13.00
2007,03,12,15,56,9.60
2007,03,12,15,57,7.40
2007,03,12,15,58,7.80
2007,03,12,15,59,14.60
2007,03,12,16,00,7.30
2007,03,12,16,01,3.10
2007,03,12,16,02,8.60
2007,03,12,16,03,8.60
2007,03,12,16,04,10.90
2007,03,12,16,05,9.90
2007,03,12,16,06,5.10
2007,03,12,16,07,8.90
2007,03,12,16,08,14.10
2007,03,12,16,09,15.50
2007,03,12,16,10,19.10
2007,03,12,16,11,8.90
2007,03,12,16,12,14.40
2007,03,12,16,13,11.40
2007,03,12,16,14,8.10
2007,03,12,16,15,5.30
2007,03,12,16,16,5.80
2007,03,12,16,17,6.90
2007,03,12,16,18,12.80
2007,03,12,16,19,11.90
2007,03,12,16,20,10.30
2007,03,12,16,21,7.60
2007,03,12,16,22,13.90
2007,03,12,16,23,15.30
2007,03,12,16,24,9.60
2007,03,12,16,25,7.40
2007,03,12,16,26,14.70
2007,03,12,16,27,12.90
2007,03,12,16,28,11.60
2007,03,12,16,29,11.40
2007,03,12,16,30,8.50
2007,03,12,16,31,8.00
2007,03,12,16,32,7.70
2007,03,12,16,33,17.50
2007,03,12,16,34,12.90
2007,03,12,16,35,13.90
2007,03,12,16,36,7.70
2007,03,12,16,37,14.10
2007,03,12,16,38,9.50
2007,03,12,16,39,11.40
2007,03,12,16,40,11.80
2007,03,12,16,41,7.50
2007,03,12,16,42,5.50
2007,03,12,16,43,10.80
2007,03,12,16,44,8.40
2007,03,12,16,45,7.50
2007,03,12,16,46,7.60
2007,03,12,16,47,6.60
2007,03,12,16,48,5.80
2007,03,12,16,49,9.70
2007,03,12,16,50,10.00
2007,03,12,16,51,10.10
2007,03,12,16,52,10.10
2007,03,12,16,53,7.70
2007,03,12,16,54,11.90
2007,03,12,16,55,10.50
2007,03,12,16,56,7.40
2007,03,12,16,57,9.10
2007,03,12,16,58,10.00
2007,03,12,16,59,7.70
2007,03,12,17,00,12.90
2007,03,12,17,01,14.50
2007,03,12,17,02,9.70
2007,03,12,17,03,10.10
2007,03,12,17,04,9.50
2007,03,12,17,05,13.80
2007,03,12,17,06,7.50
2007,03,12,17,07,8.10
2007,03,12,17,08,6.30
2007,03,12,17,09,6.00
2007,03,12,17,10,7.80
2007,03,12,17,11,4.30
2007,03,12,17,12,5.20
2007,03,12,17,13,4.80
2007,03,12,17,14,8.80
2007,03,12,17,15,5.10
2007,03,12,17,16,6.40
2007,03,12,17,17,8.70
2007,03,12,17,18,7.80
2007,03,12,17,19,7.60
2007,03,12,17,20,10.40
2007,03,12,17,21,4.00
2007,03,12,17,22,6.30
2007,03,12,17,23,7.40
2007,03,12,17,24,4.60
2007,03,12,17,25,6.40
2007,03,12,17,26,3.50
2007,03,12,17,27,11.80
2007,03,12,17,28,10.40
2007,03,12,17,29,13.20
2007,03,12,17,30,10.20
2007,03,12,17,31,3.40
2007,03,12,17,32,3.30
2007,03,12,17,33,5.50
2007,03,12,17,34,7.30
2007,03,12,17,35,7.70
2007,03,12,17,36,9.80
2007,03,12,17,37,8.00